Location: Casalecchio di Reno
(44.4760°N, 11.2757°E)
Time: 16:04:31
(UTC+02:00)

DX 1 - Pass Details

Date: 21 June 2024
Orbit: 607 x 619 km, 98.3° (Epoch: 19 July)

Event Time Altitude Azimuth Distance (km) Brightness Sun altitude
Rises 00:46:15 0° 22° (NNE) 2,877 ? -21.7°
Reaches altitude 10° 00:48:37 10° 32° (NNE) 1,968 ? -21.8°
Maximum altitude 00:52:30 34° 97° (E) 1,015 ? -21.9°
Enters shadow 00:52:39 34° 102° (ESE) 1,016 ? -21.9°
